735  
NZUS43 KILX 211310  
HWRILX  
 
AREA WEATHER ROUNDUP  
NATIONAL WEATHER SERVICE LINCOLN IL  
700 AM CST TUE NOV 21 2017  
 
NOTE: "FAIR" INDICATES FEW OR NO CLOUDS BELOW 12,000 FEET, WITH  
NO SIGIFICANT WEATHER AND/OR OBSTRUCTIONS TO VISIBILITY.  
 
 
CITY SKY/WX TMP DP RH WIND PRES REMARKS
 
BLOOMINGTON CLOUDY 38 31 76 SW16 29.78R WCI 29  
CHAMPAIGN CLEAR 37 30 75 S17 29.81R WCI 27  
DANVILLE CLEAR 37 29 74 S16 29.78S WCI 27  
DECATUR CLEAR 39 30 70 SW13 29.82R WCI 31  
EFFINGHAM CLEAR 40 30 68 S5 29.89R  
FLORA PTCLDY 41 31 67 S14G20 29.90R WCI 33  
GALESBURG MOCLDY 41 34 74 W12 29.79R WCI 35  
JACKSONVILLE PTCLDY 40 31 67 SW10 29.81R WCI 34  
LACON CLOUDY 41 32 70 SW8 29.76R  
LAWRENCEVILLE CLOUDY 36 29 75 S9 29.92S WCI 29  
LITCHFIELD PTCLDY 35 30 84 S9 29.84R WCI 27  

 
 
 
CITY SKY/WX TMP DP RH WIND PRES REMARKS
 
LINCOLN CLOUDY 38 32 79 S6 29.79R WCI 34  
MACOMB CLOUDY 41 33 73 W10 29.81R  
MATTOON PTCLDY 38 30 73 S12 29.84R WCI 30  
MT CARMEL AP PTCLDY 39 28 64 S14 29.91F WCI 31  
OLNEY-NOBLE AP CLEAR 38 27 62 S9 29.91R WCI 32  
PARIS AP CLOUDY 39 31 72 S16G22 29.85R WCI 30  
PEORIA CLOUDY 37 32 82 SW5 29.79R WCI 33  
PONTIAC PTCLDY 39 34 80 SW13G18 29.77R WCI 32  
RANTOUL CLEAR 39 32 75 S9 29.80R WCI 33  
ROBINSON CLEAR 39 28 65 S12 29.90S WCI 32  
SPRINGFIELD CLOUDY 41 31 67 S10 29.81R WCI 35  
TAYLORVILLE PTCLDY 36 30 79 S9 29.82S WCI 29  

 
   
..REGIONAL REPORTS
 
 
 
CITY SKY/WX TMP DP RH WIND PRES REMARKS
 
CHICAGO O'HARE CLOUDY 42 31 64 SW13 29.67R  
KANKAKEE PTCLDY 38 31 76 SW15G22 29.76R WCI 29  
MOLINE CLOUDY 44 28 53 W10 29.75R  
MOUNT STERLING PTCLDY 44 32 61 W9 29.80R  
MOUNT VERNON CLEAR 39 30 70 S10 29.91S WCI 32  
PITTSFIELD CLOUDY 43 32 65 S3 29.82R  
QUINCY CLOUDY 42 32 67 W8 29.80R  
ROCKFORD CLOUDY 43 31 62 SW8 29.69R  

 
 
 
CITY SKY/WX TMP DP RH WIND PRES REMARKS
 
BURLINGTON CLOUDY 44 32 62 NW5 29.80R  
CEDAR RAPIDS LGT RAIN 39 23 52 NW20G25 29.81R WCI 29  
DES MOINES LGTSLEET 39 25 57 NW15 29.90R WCI 31  
KIRKSVILLE PTCLDY 43 33 68 NW8 29.85R  
OTTUMWA CLOUDY 43 25 49 NW14 29.86R  
ST LOUIS MOCLDY 45 30 55 S9 29.85R  

 
 
 
CITY SKY/WX TMP DP RH WIND PRES REMARKS
 
TERRE HAUTE CLOUDY 38 27 64 S8 29.88S WCI 32  
EVANSVILLE CLEAR 40 30 67 S9 29.97S WCI 34  
INDIANAPOLIS CLOUDY 40 26 57 SW13 29.88S WCI 32  
LAFAYETTE CLOUDY 38 29 70 SW6 29.82S WCI 33  
MADISON CLOUDY 42 22 44 W9G24 29.63R  
MILWAUKEE CLOUDY 43 33 68 SW10 29.60R  

 
 
 
 
CLICK HERE TO GO TO PREVIOUS BULLETINS.

The Nexlab IL Page Main Text Page